SKYSAT-C8 (42990 NORAD) Tracking and Keplerian Element Data

This shows tracking and keplerian element data for the satellite.

Feedback or suggestion? Click here.




ElementValue
Catalog42990
NameSKYSAT-C8
Epoch Orbit10443
Epoch Day261.9020812
Epoch Year2019
RAAN14.7546
Inclination97.4426
Eccentricity0.0002792
Argument of Perigee339.8822
Mean Anonmoly20.2304
Mean Motion15.21887422
Decay Rate3.93E-06
L11 42990U 17068D 19261.90208120 .00000393 00000-0 20319-4 0 9991
L22 42990 97.4426 14.7546 0002792 339.8822 20.2304 15.21887422104433

Live tracking and technical data element details for SKYSAT-C8 (NORAD 42990). SKYSAT-C8 can be tracked NOW for your location showing map with azimuth and elevation plus other details from your city location.

Track the satellite on the map from your city or location and see movement details for azimuth, elevation, latitude, longitude, range, height, and movement on the map or in text.







IsCatalogInMostPopularTable: catalog: 42990, numindb: 324
Update: records affected: 1



GetName: 42990 SKYSAT-C8

Hit Count: updated at: Thu, 19 Sep 2019 16:57:56 GMT